Location: *
(43.4667°N, 11.6833°E)
Time: 22:27:28
(UTC+00:00)

Meteor 2-3 Rocket - Pass Details

Date: 19 July 2019
Orbit: 840 x 887 km, 81.2° (Epoch: 18 August)

Event Time Altitude Azimuth Distance (km) Brightness Sun altitude
Exits shadow 21:25:59 18° 208° (SSW) 2,011 5.3 -20.7°
Maximum altitude 21:30:14 58° 283° (WNW) 1,024 4.3 -21.0°
Drops below altitude 10° 21:35:59 10° 3° (N) 2,560 7.1 -21.5°
Sets 21:38:30 0° 7° (N) 3,503 7.8 -21.7°
